• în Republica Moldova
  • Lista ţărilor
  • Pe 7 zile
  • Temperatura apei
  • Hartă satelitară
  • Meteo pe hartă
  • Widget-uri
  • user-avatar
    Intrare

    Meteo pe oră la Barra

    Astăzi, 28 Martie, Marţi

    Timp Temperatura Precipitaţii Vânt Presiune Umiditate
    00:00 +28°C° 0 mm 4 m/s 743 mmHg 75%
    01:00 +28°C° 0 mm 4 m/s 743 mmHg 73%
    02:00 +28°C° 0 mm 5 m/s 743 mmHg 72%
    03:00 +29°C° 0 mm 5 m/s 742 mmHg 71%
    04:00 +29°C° 0 mm 5 m/s 741 mmHg 70%
    05:00 +28°C° 0 mm 5 m/s 741 mmHg 71%
    06:00 +28°C° 0 mm 5 m/s 742 mmHg 72%
    07:00 +28°C° 0 mm 5 m/s 742 mmHg 73%
    08:00 +29°C° 0 mm 5 m/s 742 mmHg 70%
    09:00 +30°C° 0 mm 5 m/s 742 mmHg 66%
    10:00 +32°C° 0 mm 5 m/s 742 mmHg 62%
    11:00 +33°C° 0 mm 5 m/s 741 mmHg 60%
    12:00 +34°C° 0 mm 4 m/s 741 mmHg 58%
    13:00 +34°C° 0 mm 4 m/s 740 mmHg 56%
    14:00 +34°C° 0 mm 4 m/s 740 mmHg 57%
    15:00 +34°C° 0 mm 3 m/s 740 mmHg 58%
    16:00 +34°C° 0 mm 3 m/s 739 mmHg 61%
    17:00 +33°C° 0,1 mm 3 m/s 740 mmHg 65%
    18:00 +31°C° 0,1 mm 3 m/s 740 mmHg 68%
    19:00 +30°C° 0,1 mm 3 m/s 740 mmHg 71%
    20:00 +30°C° 0,3 mm 4 m/s 740 mmHg 72%
    21:00 +29°C° 0,3 mm 4 m/s 740 mmHg 73%
    22:00 +29°C° 0,3 mm 4 m/s 740 mmHg 73%
    23:00 +29°C° 0 mm 4 m/s 740 mmHg 72%

    Mâine, 29 Martie, Miercuri

    Timp Temperatura Precipitaţii Vânt Presiune Umiditate
    00:00 +29°C° 0 mm 4 m/s 740 mmHg 70%
    01:00 +29°C° 0 mm 4 m/s 740 mmHg 68%
    02:00 +29°C° 0 mm 4 m/s 740 mmHg 68%
    03:00 +28°C° 0 mm 4 m/s 740 mmHg 69%
    04:00 +28°C° 0 mm 4 m/s 740 mmHg 69%
    05:00 +28°C° 0 mm 4 m/s 740 mmHg 72%
    06:00 +28°C° 0 mm 4 m/s 741 mmHg 74%
    07:00 +28°C° 0 mm 4 m/s 741 mmHg 77%
    08:00 +30°C° 0 mm 4 m/s 742 mmHg 70%
    09:00 +33°C° 0 mm 5 m/s 742 mmHg 62%
    10:00 +35°C° 0 mm 5 m/s 743 mmHg 55%
    11:00 +36°C° 0 mm 5 m/s 742 mmHg 51%
    12:00 +37°C° 0 mm 5 m/s 742 mmHg 47%
    13:00 +39°C° 0 mm 6 m/s 742 mmHg 43%
    14:00 +39°C° 0,3 mm 6 m/s 742 mmHg 48%
    15:00 +38°C° 0,3 mm 6 m/s 741 mmHg 53%
    16:00 +36°C° 0,3 mm 6 m/s 741 mmHg 59%
    17:00 +34°C° 0,9 mm 6 m/s 742 mmHg 67%
    18:00 +32°C° 0,9 mm 6 m/s 742 mmHg 76%
    19:00 +29°C° 0,9 mm 6 m/s 743 mmHg 85%
    20:00 +28°C° 0,8 mm 6 m/s 743 mmHg 86%
    21:00 +28°C° 0,8 mm 6 m/s 744 mmHg 87%
    22:00 +28°C° 0,8 mm 6 m/s 744 mmHg 88%
    23:00 +27°C° 1,9 mm 5 m/s 744 mmHg 90%

    Poimâine, 30 Martie, Joi

    Timp Temperatura Precipitaţii Vânt Presiune Umiditate
    00:00 +27°C° 1,9 mm 5 m/s 744 mmHg 91%
    01:00 +27°C° 1,9 mm 5 m/s 744 mmHg 92%
    02:00 +27°C° 1 mm 4 m/s 744 mmHg 92%
    03:00 +26°C° 1 mm 4 m/s 744 mmHg 93%
    04:00 +26°C° 1 mm 3 m/s 744 mmHg 94%
    05:00 +26°C° 0,2 mm 3 m/s 745 mmHg 94%
    06:00 +27°C° 0,2 mm 3 m/s 745 mmHg 94%
    07:00 +27°C° 0,2 mm 3 m/s 746 mmHg 94%
    08:00 +29°C° 0 mm 3 m/s 746 mmHg 83%
    09:00 +33°C° 0 mm 3 m/s 747 mmHg 72%
    10:00 +35°C° 0 mm 3 m/s 747 mmHg 61%
    11:00 +36°C° 0 mm 3 m/s 746 mmHg 55%
    12:00 +37°C° 0 mm 3 m/s 746 mmHg 49%
    13:00 +39°C° 0 mm 3 m/s 745 mmHg 42%
    14:00 +38°C° 0 mm 4 m/s 745 mmHg 46%
    15:00 +37°C° 0 mm 4 m/s 744 mmHg 50%
    16:00 +37°C° 0 mm 4 m/s 744 mmHg 53%
    17:00 +34°C° 0 mm 4 m/s 744 mmHg 66%
    18:00 +32°C° 0 mm 4 m/s 745 mmHg 78%
    19:00 +28°C° 0 mm 3 m/s 745 mmHg 91%
    20:00 +28°C° 0 mm 3 m/s 746 mmHg 91%
    21:00 +28°C° 0 mm 3 m/s 746 mmHg 91%
    22:00 +27°C° 0 mm 3 m/s 747 mmHg 91%
    23:00 +27°C° 0 mm 3 m/s 747 mmHg 88%

    31 Martie, Vineri

    Timp Temperatura Precipitaţii Vânt Presiune Umiditate
    00:00 +27°C° 0 mm 3 m/s 746 mmHg 85%
    01:00 +27°C° 0 mm 3 m/s 746 mmHg 83%
    02:00 +27°C° 0 mm 2 m/s 746 mmHg 82%
    03:00 +26°C° 0 mm 2 m/s 746 mmHg 82%
    04:00 +26°C° 0 mm 1 m/s 745 mmHg 82%
    05:00 +26°C° 0 mm 2 m/s 746 mmHg 80%
    06:00 +26°C° 0 mm 2 m/s 746 mmHg 78%
    07:00 +26°C° 0 mm 2 m/s 747 mmHg 76%
    08:00 +29°C° 0 mm 2 m/s 747 mmHg 68%
    09:00 +31°C° 0 mm 2 m/s 747 mmHg 60%
    10:00 +34°C° 0 mm 3 m/s 748 mmHg 53%
    11:00 +35°C° 0 mm 3 m/s 747 mmHg 50%
    12:00 +36°C° 0 mm 3 m/s 747 mmHg 48%
    13:00 +37°C° 0 mm 3 m/s 746 mmHg 46%
    14:00 +36°C° 0 mm 3 m/s 746 mmHg 50%
    15:00 +35°C° 0 mm 3 m/s 745 mmHg 53%
    16:00 +34°C° 0 mm 3 m/s 745 mmHg 57%
    17:00 +31°C° 0 mm 2 m/s 746 mmHg 67%
    18:00 +29°C° 0 mm 2 m/s 746 mmHg 76%
    19:00 +27°C° 0 mm 2 m/s 746 mmHg 86%
    20:00 +26°C° 0,1 mm 2 m/s 747 mmHg 87%
    21:00 +26°C° 0,1 mm 1 m/s 747 mmHg 88%
    22:00 +26°C° 0,1 mm 1 m/s 748 mmHg 90%
    23:00 +26°C° 0,3 mm 1 m/s 748 mmHg 90%

    1 Aprilie, Sâmbătă

    Timp Temperatura Precipitaţii Vânt Presiune Umiditate
    00:00 +26°C° 0,3 mm 2 m/s 747 mmHg 90%
    01:00 +26°C° 0,3 mm 2 m/s 747 mmHg 91%
    02:00 +26°C° 0,1 mm 2 m/s 747 mmHg 92%
    03:00 +26°C° 0,1 mm 2 m/s 747 mmHg 92%
    04:00 +26°C° 0,1 mm 3 m/s 747 mmHg 93%
    05:00 +26°C° 0,1 mm 3 m/s 747 mmHg 93%
    06:00 +26°C° 0,1 mm 3 m/s 747 mmHg 93%
    07:00 +26°C° 0,1 mm 3 m/s 748 mmHg 92%
    08:00 +27°C° 0,2 mm 3 m/s 748 mmHg 88%
    09:00 +28°C° 0,2 mm 3 m/s 748 mmHg 83%
    10:00 +29°C° 0,2 mm 4 m/s 749 mmHg 79%
    11:00 +29°C° 0,2 mm 4 m/s 748 mmHg 78%
    12:00 +29°C° 0,2 mm 4 m/s 748 mmHg 78%
    13:00 +29°C° 0,2 mm 4 m/s 747 mmHg 77%
    14:00 +29°C° 0 mm 4 m/s 747 mmHg 76%
    15:00 +29°C° 0 mm 4 m/s 746 mmHg 75%
    16:00 +29°C° 0 mm 4 m/s 746 mmHg 75%
    17:00 +28°C° 0 mm 3 m/s 747 mmHg 80%
    18:00 +26°C° 0 mm 3 m/s 747 mmHg 86%
    19:00 +25°C° 0 mm 2 m/s 748 mmHg 92%
    20:00 +24°C° 0 mm 2 m/s 748 mmHg 92%
    21:00 +24°C° 0 mm 2 m/s 749 mmHg 93%
    22:00 +23°C° 0 mm 2 m/s 749 mmHg 94%
    23:00 +23°C° 0 mm 2 m/s 749 mmHg 93%

    2 Aprilie, Duminică

    Timp Temperatura Precipitaţii Vânt Presiune Umiditate
    00:00 +21°C° 0 mm 2 m/s 748 mmHg 93%
    01:00 +21°C° 0 mm 2 m/s 748 mmHg 92%
    02:00 +21°C° 0 mm 3 m/s 748 mmHg 92%
    03:00 +21°C° 0 mm 3 m/s 748 mmHg 91%
    04:00 +21°C° 0 mm 3 m/s 748 mmHg 91%
    05:00 +21°C° 0 mm 3 m/s 748 mmHg 90%
    06:00 +22°C° 0 mm 3 m/s 749 mmHg 89%
    07:00 +22°C° 0 mm 3 m/s 749 mmHg 88%
    08:00 +25°C° 0,2 mm 4 m/s 749 mmHg 83%
    09:00 +26°C° 0,2 mm 4 m/s 749 mmHg 78%
    10:00 +28°C° 0,2 mm 4 m/s 749 mmHg 73%
    11:00 +29°C° 0,3 mm 5 m/s 749 mmHg 71%
    12:00 +29°C° 0,3 mm 5 m/s 748 mmHg 70%
    13:00 +30°C° 0,3 mm 5 m/s 748 mmHg 68%
    14:00 +29°C° 0,3 mm 5 m/s 748 mmHg 71%
    15:00 +29°C° 0,3 mm 5 m/s 748 mmHg 73%
    16:00 +28°C° 0,3 mm 5 m/s 748 mmHg 76%
    17:00 +27°C° 0,2 mm 5 m/s 748 mmHg 82%
    18:00 +25°C° 0,2 mm 5 m/s 749 mmHg 87%
    19:00 +23°C° 0,2 mm 4 m/s 749 mmHg 93%
    20:00 +23°C° 0,5 mm 5 m/s 750 mmHg 93%
    21:00 +23°C° 0,5 mm 5 m/s 750 mmHg 93%
    22:00 +23°C° 0,5 mm 5 m/s 750 mmHg 94%
    23:00 +23°C° 0,5 mm 5 m/s 750 mmHg 93%
    Arată mai mult